Weather History for Fairbanks Ft. Wainwright, AK

Change the Weather History Date:

Monday, September 23, 2013

  Actual Average Record
Temperature  
Mean Temperature 30 °F -  
Max Temperature 37 °F 47 °F 66 °F (1997)
Min Temperature 24 °F 32 °F 24 °F (1996)
Degree Days  
Heating Degree Days 34    
Moisture  
Dew Point 24 °F    
Average Humidity 77    
Maximum Humidity 93    
Minimum Humidity 52    
Precipitation  
Precipitation 0.00 in - - ()
Sea Level Pressure  
Sea Level Pressure 29.73 in    
Wind  
Wind Speed 3 mph (West)    
Max Wind Speed 7 mph    
Max Gust Speed -    
Visibility 10 miles    
Events      
Averages and records for this station are not official NWS values.
T = Trace of Precipitation, MM = Missing Value Source: NWS Daily Summary

Daily Weather History Graph

Daily Weather History Graph

Search for Another Location

Airport:

Trip Planner

Search our weather history database for the weather conditions in past years. The results will help you decide how hot, cold, wet, or windy it might be!

Date:

Astronomy

Sep. 23, 2013 Rise Set
Actual Time 7:37 AM AKDT 7:46 PM AKDT
Civil Twilight 6:48 AM AKDT 8:34 PM AKDT
Nautical Twilight 5:48 AM AKDT 9:34 PM AKDT
Astronomical Twilight 4:39 AM AKDT 10:42 PM AKDT
Moon 8:30 PM AKDT (9/23) 1:58 PM AKDT (9/23)
Length of Visible Light 13h 46m
Length of Day
12h 08m
Waning Gibbous, 80% of the Moon is Illuminated
Sep 23
Waning Gibbous
Sep 26
Last Quarter
Oct 4
New
Oct 11
First Quarter
Oct 18
Full

Hourly Weather History & Observations

Time (AKDT) Temp. Windchill Dew Point Humidity Pressure Visibility Wind Dir Wind Speed Gust Speed Precip Events Conditions
12:56 AM 28.0 °F 21.7 °F 25.0 °F 88% 29.55 in 10.0 mi West 5.8 mph - N/A   Overcast
1:56 AM 28.9 °F 21.9 °F 25.0 °F 85% 29.57 in 10.0 mi West 6.9 mph - N/A   Overcast
2:56 AM 28.0 °F 22.8 °F 24.1 °F 85% 29.59 in 10.0 mi WNW 4.6 mph - N/A   Overcast
3:56 AM 28.0 °F 24.2 °F 24.1 °F 85% 29.61 in 10.0 mi West 3.5 mph - N/A   Overcast
4:56 AM 27.0 °F - 24.1 °F 89% 29.63 in 10.0 mi Calm Calm - N/A   Overcast
5:56 AM 27.0 °F - 24.1 °F 89% 29.65 in 10.0 mi Calm Calm - N/A   Overcast
6:15 AM 26.6 °F 22.6 °F 23.0 °F 86% 29.63 in 7.0 mi West 3.5 mph - N/A   Mostly Cloudy
6:55 AM 26.6 °F - 23.0 °F 86% 29.67 in 7.0 mi WSW 1.2 mph - N/A   Mostly Cloudy
7:55 AM 24.8 °F 20.5 °F 23.0 °F 93% 29.69 in 7.0 mi West 3.5 mph - N/A   Mostly Cloudy
8:55 AM 26.6 °F 22.6 °F 23.0 °F 86% 29.70 in 7.0 mi Variable 3.5 mph - N/A   Mostly Cloudy
9:55 AM 26.6 °F - 23.0 °F 86% 29.72 in 7.0 mi Calm Calm - N/A   Mostly Cloudy
10:55 AM 28.4 °F 24.6 °F 26.6 °F 93% 29.73 in 10.0 mi East 3.5 mph - N/A   Mostly Cloudy
11:55 AM 32.0 °F - 26.6 °F 80% 29.74 in 10.0 mi Calm Calm - N/A   Mostly Cloudy
12:55 PM 33.8 °F - 26.6 °F 75% 29.75 in 10.0 mi Calm Calm - N/A   Mostly Cloudy
1:55 PM 35.6 °F - 24.8 °F 65% 29.76 in 13.0 mi Calm Calm - N/A   Mostly Cloudy
2:55 PM 35.6 °F 31.7 °F 19.4 °F 52% 29.77 in 13.0 mi SSW 4.6 mph - N/A   Mostly Cloudy
3:55 PM 37.4 °F 34.9 °F 21.2 °F 52% 29.78 in 13.0 mi SW 3.5 mph - N/A   Mostly Cloudy
4:55 PM 37.4 °F 34.9 °F 21.2 °F 52% 29.79 in 13.0 mi NNW 3.5 mph - N/A   Mostly Cloudy
5:55 PM 37.4 °F 34.9 °F 21.2 °F 52% 29.78 in 10.0 mi WNW 3.5 mph - N/A   Mostly Cloudy
6:55 PM 35.6 °F 31.7 °F 24.8 °F 65% 29.82 in 10.0 mi WNW 4.6 mph - N/A   Mostly Cloudy
7:55 PM 35.6 °F 32.8 °F 26.6 °F 70% 29.83 in 10.0 mi Variable 3.5 mph - N/A   Mostly Cloudy
8:55 PM 35.6 °F - 24.8 °F 65% 29.86 in 10.0 mi Calm Calm - N/A   Mostly Cloudy
9:55 PM 32.0 °F - 28.4 °F 87% 29.87 in 10.0 mi Calm Calm - N/A   Mostly Cloudy
10:56 PM 32.0 °F - 28.0 °F 85% 29.89 in 10.0 mi Calm Calm - N/A   Overcast
11:56 PM 33.1 °F 30.0 °F 25.0 °F 72% 29.90 in 10.0 mi SW 3.5 mph - N/A   Overcast